Tracking 30701 objects as of 14-Jun-2025
HD Live streaming from Space Station
objects crossing your sky now

STARLINK-2558

Track STARLINK-2558 now!
10-day predictions
STARLINK-2558 is classified as:


NORAD ID: 48282
Int'l Code: 2021-036G
Perigee: 553.8 km
Apogee: 554.9 km
Inclination: 53.1 °
Period: 95.6 minutes
Semi major axis: 6925 km
RCS: Unknown
Launch date: April 29, 2021
Source: United States (US)
Launch site: AIR FORCE EASTERN TEST RANGE (AFETR)
Your satellite tracking list
Your tracking list is empty




NASA's NSSDC Master Catalog

Two Line Element Set (TLE):
1 48282U 21036G   25165.49435411  .00002141  00000-0  16257-3 0  9998
2 48282  53.0524 205.5920 0000831  85.6025 274.5059 15.06403588228471
Source of the keplerian elements: AFSPC